sat.trackr.live / text

‹ back to catalog

STARLINK-3128

NORAD 49441 · 2021-104AK

PAYLOAD ACTIVE UNKNOWN

§ Identity

Operator
Country
US
Launch date
2021-11-13
Launch site
AFETR
Launch vehicle
Mass (kg)
RCS (m²)

Purposes: comms

External: N2YO · Heavens-Above · Gunter

§ Orbital elements

Epoch: 2026-09-19T23:40:28.627680Z

Period
93.85 min
Inclination
53.1606°
Eccentricity
0.0001108
Mean motion
15.34387893 rev/d
Perigee alt
462.0 km
Apogee alt
463.5 km
Semi-major
6,840.9 km
B*
3.3879e-5
RAAN
40.4700°
Arg perigee
75.6936°
Mean anomaly
284.4190°
Rev number
26,847

§ Raw data

STARLINK-31281 49441U 21104AK  26262.98644245  .00000768  00000+0  33879-4 0  99942 49441  53.1606  40.4700 0001108  75.6936 284.4190 15.34387893268472

JSON: /api/v1/satellites/49441 · /tle

For live sub-satellite position, see the globe view (requires WebGL).

§ Visibility from observer

Set your observer location to see the next 7 days of passes ≥ 10°. The values pass through the URL so the page stays shareable.

No JS? Fill the form by hand. The geolocation button needs JavaScript.